Weather History for Andravida, Greece

Change the Weather History Date:

Thursday, March 27, 2014

  Actual Average Record
Temperature  
Mean Temperature 58 °F -  
Max Temperature 70 °F 64 °F 86 °F (2001)
Min Temperature 46 °F 47 °F 39 °F (2009)
Degree Days  
Heating Degree Days 7    
Growing Degree Days 8 (Base 50)    
Moisture  
Dew Point 49 °F    
Average Humidity 73    
Maximum Humidity 93    
Minimum Humidity 36    
Precipitation  
Precipitation 0.00 in - - ()
Sea Level Pressure  
Sea Level Pressure 29.85 in    
Wind  
Wind Speed 4 mph ()    
Max Wind Speed 23 mph    
Max Gust Speed -    
Visibility 6.2 miles    
Events      
Averages and records for this station are not official NWS values.
T = Trace of Precipitation, MM = Missing Value Source: Averaged Metar Reports

Daily Weather History Graph

Daily Weather History Graph

Search for Another Location

Airport:

Trip Planner

Search our weather history database for the weather conditions in past years. The results will help you decide how hot, cold, wet, or windy it might be!

Date:

Astronomy

Mar. 27, 2014 Rise Set
Actual Time 6:28 AM EET 6:52 PM EET
Civil Twilight 6:01 AM EET 7:19 PM EET
Nautical Twilight 5:30 AM EET 7:50 PM EET
Astronomical Twilight 4:59 AM EET 8:21 PM EET
Moon 4:02 AM EET (3/27) 3:22 PM EET (3/27)
Length of Visible Light 13h 17m
Length of Day
12h 24m
Waning Crescent, 15% of the Moon is Illuminated
Mar 27
Waning Crescent
Mar 30
New
Apr 7
First Quarter
Apr 15
Full
Apr 22
Last Quarter

Hourly Weather History & Observations

Time (EET) Temp. Dew Point Humidity Pressure Visibility Wind Dir Wind Speed Gust Speed Precip Events Conditions
12:20 AM 55.4 °F 51.8 °F 88% 29.95 in 6.2 mi SSE 4.6 mph - N/A   Mostly Cloudy
12:50 AM 55.4 °F 51.8 °F 88% 29.95 in 6.2 mi Calm Calm - N/A   Mostly Cloudy
1:50 AM 53.6 °F 50.0 °F 88% 29.95 in 6.2 mi Variable 3.5 mph - N/A   Mostly Cloudy
2:00 AM 54 °F 50 °F 80% 29.96 in 6 mi 3.5 mph - -   Partly Cloudy
2:50 AM 51.8 °F 48.2 °F 88% 29.95 in 6.2 mi Calm Calm - N/A   Mostly Cloudy
3:20 AM 51.8 °F 48.2 °F 88% 29.92 in 6.2 mi Calm Calm - N/A   Mostly Cloudy
3:50 AM 50.0 °F 46.4 °F 87% 29.92 in 6.2 mi Calm Calm - N/A   Mostly Cloudy
4:20 AM 50.0 °F 46.4 °F 87% 29.92 in 6.2 mi Calm Calm - N/A   Mostly Cloudy
4:50 AM 50.0 °F 46.4 °F 87% 29.89 in 6.2 mi Variable 3.5 mph - N/A   Mostly Cloudy
5:00 AM 49 °F 46 °F 84% 29.91 in 6 mi 3.5 mph - -   Partly Cloudy
5:20 AM 50.0 °F 46.4 °F 87% 29.89 in 6.2 mi Calm Calm - N/A   Mostly Cloudy
5:50 AM 50.0 °F 46.4 °F 87% 29.89 in 6.2 mi Variable 3.5 mph - N/A   Mostly Cloudy
6:20 AM 48.2 °F 44.6 °F 87% 29.89 in 6.2 mi Calm Calm - N/A   Mostly Cloudy
6:50 AM 46.4 °F 44.6 °F 93% 29.89 in 6.2 mi Calm Calm - N/A   Mostly Cloudy
7:20 AM 48.2 °F 44.6 °F 87% 29.89 in 6.2 mi Calm Calm - N/A   Mostly Cloudy
7:50 AM 53.6 °F 48.2 °F 82% 29.86 in 6.2 mi Calm Calm - N/A   Mostly Cloudy
8:00 AM 54 °F 49 °F 77% 29.88 in 6 mi Calm Calm - -   Scattered Clouds
8:20 AM 57.2 °F 50.0 °F 77% 29.86 in 6.2 mi Calm Calm - N/A   Mostly Cloudy
8:50 AM 59.0 °F 48.2 °F 67% 29.86 in 6.2 mi NNW 4.6 mph - N/A   Mostly Cloudy
9:20 AM 59.0 °F 48.2 °F 67% 29.86 in 6.2 mi SW 4.6 mph - N/A   Mostly Cloudy
9:50 AM 60.8 °F 50.0 °F 68% 29.86 in 6.2 mi Calm Calm - N/A   Mostly Cloudy
10:20 AM 60.8 °F 50.0 °F 68% 29.86 in 6.2 mi Calm Calm - N/A   Mostly Cloudy
10:50 AM 66.2 °F 48.2 °F 52% 29.86 in 6.2 mi Calm Calm - N/A   Mostly Cloudy
11:00 AM 67 °F 48 °F 39% 29.87 in 6 mi Calm Calm - -   Scattered Clouds
11:20 AM 66.2 °F 48.2 °F 52% 29.86 in 6.2 mi Calm Calm - N/A   Mostly Cloudy
11:50 AM 66.2 °F 50.0 °F 56% 29.83 in 6.2 mi North 4.6 mph - N/A   Mostly Cloudy
12:20 PM 66.2 °F 50.0 °F 56% 29.83 in 6.2 mi North 4.6 mph - N/A   Mostly Cloudy
12:50 PM 69.8 °F 48.2 °F 46% 29.80 in 6.2 mi ESE 6.9 mph - N/A   Overcast
1:20 PM 69.8 °F 48.2 °F 46% 29.80 in 6.2 mi SE 6.9 mph - N/A   Overcast
1:50 PM 69.8 °F 50.0 °F 49% 29.77 in 6.2 mi South 11.5 mph - N/A   Overcast
2:00 PM 70 °F 49 °F 36% 29.80 in 6 mi South 11.5 mph - -   Overcast
2:20 PM 69.8 °F 50.0 °F 49% 29.77 in 6.2 mi SSW 9.2 mph - N/A   Overcast
2:50 PM 68.0 °F 51.8 °F 56% 29.80 in 6.2 mi SSW 11.5 mph - N/A   Overcast
3:20 PM 66.2 °F 55.4 °F 68% 29.80 in 6.2 mi South 13.8 mph - N/A   Overcast
3:50 PM 66.2 °F 53.6 °F 64% 29.80 in 6.2 mi South 18.4 mph - N/A   Overcast
4:20 PM 66.2 °F 53.6 °F 64% 29.80 in 6.2 mi South 18.4 mph - N/A   Overcast
4:50 PM 64.4 °F 55.4 °F 73% 29.77 in 6.2 mi SSE 23.0 mph - N/A   Overcast
5:00 PM 65 °F 54 °F 60% 29.78 in 6 mi SSE 23.0 mph - -   Overcast
5:20 PM 64.4 °F 55.4 °F 73% 29.77 in 6.2 mi South 18.4 mph - N/A   Overcast
5:50 PM 64.4 °F 55.4 °F 73% 29.77 in 6.2 mi South 13.8 mph - N/A   Mostly Cloudy
6:20 PM 64.4 °F 55.4 °F 73% 29.77 in 6.2 mi South 13.8 mph - N/A   Mostly Cloudy
6:50 PM 62.6 °F 57.2 °F 82% 29.80 in 6.2 mi South 11.5 mph - N/A   Mostly Cloudy
7:20 PM 59.0 °F 50.0 °F 72% 29.80 in 6.2 mi West 11.5 mph - N/A   Scattered Clouds
7:50 PM 57.2 °F 50.0 °F 77% 29.80 in 6.2 mi SSW 4.6 mph - N/A   Partly Cloudy
8:00 PM 58 °F 50 °F 67% 29.82 in 6 mi SSW 4.6 mph - -   Scattered Clouds
8:20 PM 57.2 °F 48.2 °F 72% 29.83 in 6.2 mi SW 6.9 mph - N/A   Partly Cloudy
8:50 PM 55.4 °F 48.2 °F 77% 29.83 in 6.2 mi SW 4.6 mph - N/A   Partly Cloudy
9:20 PM 55.4 °F 48.2 °F 77% 29.83 in 6.2 mi SW 4.6 mph - N/A   Partly Cloudy
9:50 PM 50.0 °F 46.4 °F 87% 29.86 in 6.2 mi Calm Calm - N/A   Partly Cloudy
10:20 PM 48.2 °F 42.8 °F 82% 29.86 in 6.2 mi Calm Calm - N/A   Partly Cloudy
10:50 PM 48.2 °F 44.6 °F 87% 29.86 in 6.2 mi Calm Calm - N/A   Partly Cloudy
11:00 PM 48 °F 45 °F 85% 29.88 in 6 mi Calm Calm - -   Scattered Clouds
11:20 PM 48.2 °F 44.6 °F 87% 29.86 in 6.2 mi Calm Calm - N/A   Partly Cloudy
11:50 PM 48.2 °F 44.6 °F 87% 29.89 in 6.2 mi Calm Calm - N/A   Partly Cloudy